When you browse on this site, cookies collect data to enhance your experience and personalize the content and advertising you see.
Visit our Privacy Policy to learn more. By continuing to use the site, you agree to this use of cookies and data.
  • In Hungary
  • List of Countries
  • For 7 days
  • Water Temperature
  • Satellite Maps
  • Weather Map
  • News
  • Weather Widgets
  • user-avatar
    Login

    Hourly Weather Habarovsk

    Today, 12 December, Wednesday

    Time Temperature Precipitation Wind Pressure Humidity
    00:00 -22°C° 0 mm 3 mps 758 mmHg 77%
    01:00 -22°C° 0 mm 3 mps 757 mmHg 78%
    02:00 -22°C° 0 mm 3 mps 757 mmHg 78%
    03:00 -23°C° 0 mm 3 mps 757 mmHg 79%
    04:00 -23°C° 0 mm 3 mps 757 mmHg 79%
    05:00 -23°C° 0 mm 3 mps 757 mmHg 79%
    06:00 -23°C° 0 mm 3 mps 756 mmHg 79%
    07:00 -23°C° 0 mm 3 mps 757 mmHg 76%
    08:00 -23°C° 0 mm 3 mps 757 mmHg 74%
    09:00 -22°C° 0 mm 3 mps 757 mmHg 70%
    10:00 -22°C° 0 mm 4 mps 757 mmHg 65%
    11:00 -22°C° 0 mm 4 mps 757 mmHg 59%
    12:00 -20°C° 0 mm 4 mps 756 mmHg 54%
    13:00 -19°C° 0 mm 4 mps 756 mmHg 53%
    14:00 -18°C° 0 mm 3 mps 756 mmHg 52%
    15:00 -18°C° 0 mm 3 mps 756 mmHg 50%
    16:00 -18°C° 0 mm 3 mps 756 mmHg 54%
    17:00 -19°C° 0 mm 3 mps 756 mmHg 58%
    18:00 -18°C° 0 mm 2 mps 756 mmHg 62%
    19:00 -18°C° 0 mm 2 mps 756 mmHg 64%
    20:00 -19°C° 0 mm 2 mps 756 mmHg 66%
    21:00 -19°C° 0 mm 2 mps 756 mmHg 68%
    22:00 -19°C° 0 mm 2 mps 756 mmHg 70%
    23:00 -19°C° 0 mm 2 mps 756 mmHg 71%

    Tomorrow, 13 December, Thursday

    Time Temperature Precipitation Wind Pressure Humidity
    00:00 -19°C° 0 mm 2 mps 756 mmHg 73%
    01:00 -20°C° 0 mm 2 mps 755 mmHg 74%
    02:00 -20°C° 0 mm 2 mps 755 mmHg 75%
    03:00 -20°C° 0 mm 2 mps 755 mmHg 76%
    04:00 -20°C° 0 mm 2 mps 755 mmHg 77%
    05:00 -20°C° 0 mm 2 mps 755 mmHg 78%
    06:00 -20°C° 0 mm 2 mps 755 mmHg 79%
    07:00 -20°C° 0 mm 2 mps 755 mmHg 77%
    08:00 -20°C° 0 mm 2 mps 755 mmHg 75%
    09:00 -20°C° 0 mm 2 mps 755 mmHg 73%
    10:00 -19°C° 0 mm 2 mps 755 mmHg 67%
    11:00 -18°C° 0 mm 2 mps 754 mmHg 60%
    12:00 -18°C° 0 mm 2 mps 754 mmHg 54%
    13:00 -17°C° 0 mm 2 mps 754 mmHg 53%
    14:00 -17°C° 0 mm 2 mps 754 mmHg 52%
    15:00 -17°C° 0 mm 2 mps 754 mmHg 51%
    16:00 -18°C° 0 mm 2 mps 754 mmHg 54%
    17:00 -18°C° 0 mm 2 mps 754 mmHg 58%
    18:00 -19°C° 0 mm 2 mps 755 mmHg 61%
    19:00 -19°C° 0 mm 2 mps 755 mmHg 64%
    20:00 -19°C° 0 mm 2 mps 755 mmHg 67%
    21:00 -22°C° 0 mm 3 mps 755 mmHg 70%
    22:00 -22°C° 0 mm 3 mps 755 mmHg 71%
    23:00 -22°C° 0 mm 3 mps 755 mmHg 72%

    Day after tomorrow, 14 December, Friday

    Time Temperature Precipitation Wind Pressure Humidity
    00:00 -23°C° 0 mm 3 mps 755 mmHg 74%
    01:00 -23°C° 0 mm 3 mps 756 mmHg 73%
    02:00 -23°C° 0 mm 3 mps 756 mmHg 73%
    03:00 -23°C° 0 mm 3 mps 756 mmHg 73%
    04:00 -25°C° 0 mm 4 mps 756 mmHg 72%
    05:00 -25°C° 0 mm 4 mps 756 mmHg 72%
    06:00 -25°C° 0 mm 4 mps 756 mmHg 71%
    07:00 -25°C° 0 mm 4 mps 757 mmHg 70%
    08:00 -25°C° 0 mm 4 mps 757 mmHg 68%
    09:00 -25°C° 0 mm 4 mps 757 mmHg 67%
    10:00 -24°C° 0 mm 4 mps 757 mmHg 62%
    11:00 -24°C° 0 mm 4 mps 757 mmHg 57%
    12:00 -24°C° 0 mm 5 mps 757 mmHg 52%
    13:00 -24°C° 0 mm 5 mps 757 mmHg 51%
    14:00 -22°C° 0 mm 5 mps 757 mmHg 51%
    15:00 -22°C° 0 mm 5 mps 757 mmHg 50%
    16:00 -22°C° 0 mm 5 mps 757 mmHg 54%
    17:00 -22°C° 0 mm 5 mps 758 mmHg 57%
    18:00 -24°C° 0 mm 5 mps 758 mmHg 61%
    19:00 -24°C° 0 mm 5 mps 758 mmHg 64%
    20:00 -24°C° 0 mm 5 mps 758 mmHg 67%
    21:00 -24°C° 0 mm 5 mps 758 mmHg 70%
    22:00 -24°C° 0 mm 5 mps 758 mmHg 71%
    23:00 -24°C° 0 mm 5 mps 758 mmHg 73%

    15 December, Saturday

    Time Temperature Precipitation Wind Pressure Humidity
    00:00 -24°C° 0 mm 5 mps 758 mmHg 75%
    01:00 -24°C° 0 mm 5 mps 758 mmHg 76%
    02:00 -22°C° 0 mm 5 mps 757 mmHg 77%
    03:00 -22°C° 0 mm 4 mps 757 mmHg 77%
    04:00 -22°C° 0 mm 4 mps 757 mmHg 77%
    05:00 -22°C° 0 mm 4 mps 757 mmHg 77%
    06:00 -22°C° 0 mm 4 mps 757 mmHg 77%
    07:00 -22°C° 0 mm 4 mps 757 mmHg 75%
    08:00 -22°C° 0 mm 5 mps 757 mmHg 72%
    09:00 -22°C° 0 mm 5 mps 757 mmHg 69%
    10:00 -21°C° 0 mm 5 mps 757 mmHg 63%
    11:00 -19°C° 0 mm 5 mps 756 mmHg 56%
    12:00 -18°C° 0 mm 5 mps 756 mmHg 50%
    13:00 -17°C° 0 mm 4 mps 755 mmHg 49%
    14:00 -16°C° 0 mm 4 mps 755 mmHg 47%
    15:00 -16°C° 0 mm 4 mps 755 mmHg 46%
    16:00 -16°C° 0 mm 4 mps 755 mmHg 49%
    17:00 -16°C° 0 mm 3 mps 754 mmHg 51%
    18:00 -16°C° 0 mm 3 mps 754 mmHg 54%
    19:00 -16°C° 0 mm 3 mps 754 mmHg 54%
    20:00 -17°C° 0 mm 3 mps 753 mmHg 54%
    21:00 -17°C° 0 mm 3 mps 753 mmHg 54%
    22:00 -16°C° 0 mm 2 mps 753 mmHg 55%
    23:00 -16°C° 0 mm 2 mps 752 mmHg 56%

    16 December, Sunday

    Time Temperature Precipitation Wind Pressure Humidity
    00:00 -16°C° 0 mm 2 mps 751 mmHg 57%
    01:00 -16°C° 0 mm 2 mps 751 mmHg 56%
    02:00 -16°C° 0 mm 2 mps 750 mmHg 55%
    03:00 -16°C° 0 mm 2 mps 750 mmHg 54%
    04:00 -16°C° 0 mm 2 mps 749 mmHg 54%
    05:00 -16°C° 0 mm 2 mps 748 mmHg 53%
    06:00 -16°C° 0 mm 2 mps 748 mmHg 52%
    07:00 -16°C° 0 mm 2 mps 747 mmHg 51%
    08:00 -15°C° 0 mm 2 mps 747 mmHg 50%
    09:00 -15°C° 0 mm 2 mps 747 mmHg 49%
    10:00 -14°C° 0 mm 2 mps 746 mmHg 48%
    11:00 -14°C° 0 mm 3 mps 746 mmHg 48%
    12:00 -13°C° 0 mm 3 mps 745 mmHg 48%
    13:00 -13°C° 0 mm 3 mps 745 mmHg 52%
    14:00 -12°C° 0 mm 3 mps 745 mmHg 56%
    15:00 -12°C° 0 mm 3 mps 745 mmHg 60%
    16:00 -13°C° 0 mm 3 mps 745 mmHg 65%
    17:00 -14°C° 0 mm 3 mps 745 mmHg 69%
    18:00 -15°C° 0 mm 3 mps 745 mmHg 74%
    19:00 -16°C° 0 mm 3 mps 745 mmHg 74%
    20:00 -16°C° 0 mm 3 mps 745 mmHg 75%
    21:00 -18°C° 0 mm 4 mps 745 mmHg 76%
    22:00 -18°C° 0 mm 4 mps 745 mmHg 77%
    23:00 -18°C° 0 mm 4 mps 745 mmHg 77%

    17 December, Monday

    Time Temperature Precipitation Wind Pressure Humidity
    00:00 -18°C° 0 mm 4 mps 745 mmHg 78%
    01:00 -19°C° 0 mm 4 mps 745 mmHg 78%
    02:00 -19°C° 0 mm 4 mps 744 mmHg 78%
    03:00 -19°C° 0 mm 4 mps 744 mmHg 78%
    04:00 -19°C° 0 mm 4 mps 744 mmHg 77%
    05:00 -20°C° 0 mm 4 mps 744 mmHg 76%
    06:00 -20°C° 0 mm 4 mps 744 mmHg 75%
    07:00 -20°C° 0 mm 4 mps 744 mmHg 74%
    08:00 -20°C° 0 mm 4 mps 744 mmHg 73%
    09:00 -20°C° 0 mm 4 mps 744 mmHg 72%
    10:00 -20°C° 0 mm 5 mps 744 mmHg 67%
    11:00 -19°C° 0 mm 5 mps 744 mmHg 62%
    12:00 -18°C° 0 mm 5 mps 743 mmHg 56%
    13:00 -18°C° 0 mm 5 mps 743 mmHg 56%
    14:00 -17°C° 0 mm 4 mps 743 mmHg 55%
    15:00 -16°C° 0 mm 4 mps 743 mmHg 55%
    16:00 -17°C° 0 mm 4 mps 743 mmHg 59%
    17:00 -18°C° 0 mm 4 mps 743 mmHg 64%
    18:00 -17°C° 0 mm 3 mps 743 mmHg 69%
    19:00 -17°C° 0 mm 3 mps 743 mmHg 72%
    20:00 -18°C° 0 mm 3 mps 743 mmHg 74%
    21:00 -18°C° 0 mm 3 mps 743 mmHg 77%
    22:00 -18°C° 0 mm 3 mps 743 mmHg 79%
    23:00 -17°C° 0 mm 2 mps 743 mmHg 81%
    Show more